Regional Weather Roundup
Issued by NWS Newport/Morehead, NC

Home | Current Version | Previous Version | Text Only | Print | Product List | Glossary On
Versions: 1 2 3 4 5 6 7 8 9 10 11 12 13 14 15 16 17 18 19 20 21 22 23 24 25 26 27 28 29 30 31 32 33 34 35 36 37 38 39 40 41 42 43 44 45 46 47 48 49 50
920
ASUS42 KMHX 191925
RWRMHX
WEATHER ROUNDUP FOR EASTERN NORTH CAROLINA
NATIONAL WEATHER SERVICE NEWPORT/MOREHEAD CITY NC
300 PM EDT SAT AUG 19 2017

NOTE: "FAIR" INDICATES FEW OR NO CLOUDS BELOW 12,000 FEET
WITH NO SIGNIFICANT WEATHER AND/OR OBSTRUCTIONS TO VISIBILITY

NCZ015>017-031-032-045>047-102-103-192000-
NORTH COAST

CITY           SKY/WX    TMP DP  RH WIND       PRES   REMARKS
EDENTON        MOSUNNY   91  76  60 CALM      29.91F HX 103
ELIZABETH CITY PTSUNNY   90  76  63 W5        29.90F HX 101
KITTY HAWK     CLOUDY    86  73  64 CALM      29.91S
MANTEO         CLOUDY    87  75  67 N3        29.91F

$$

NCZ045>047-081-094-103-104-192000-
CENTRAL COAST

CITY           SKY/WX    TMP DP  RH WIND       PRES   REMARKS
FRISCO         PTSUNNY   82  74  76 SW10G22   29.93F

$$

NCZ095-097-098-100-101-192000-
SOUTHERN COAST

CITY           SKY/WX    TMP DP  RH WIND       PRES   REMARKS
BEAUFORT       CLOUDY    87  83  87 SW16      29.93S HX 108
CEDAR ISLAND   NOT AVBL
JACKSONVILLE   TSTM      76  75  97 CALM      29.94R
PINEY ISLAND   CLOUDY   N/A N/A N/A S10       29.93F
WILMINGTON     TSTM      78  74  87 N6        29.94R


$$

NCZ011>013-027>030-043-044-078>080-089-090>093-098-192000-
COASTAL PLAIN

CITY           SKY/WX    TMP DP  RH WIND       PRES   REMARKS
AHOSKIE          N/A     88  73  61 CALM      29.91F
CLINTON        CLOUDY    90  71  52 NW5       29.92S
ELIZABETHTOWN  NOT AVBL
GOLDSBORO      MOSUNNY   90  68  48 NW3       29.92S
GREENVILLE     SUNNY     91  70  49 N5        29.93F
HAVELOCK       CLOUDY    85  76  74 S10       29.93F THUNDER
KENANSVILLE    MOSUNNY   86  72  62 N5        29.92S
KINSTON        NOT AVBL
NEW BERN       CLOUDY    83  77  82 S10       29.91F
RICHLANDS      CLOUDY    87  77  72 SE8       29.92R
ROCKY MOUNT    SUNNY     90  70  51 NW8       29.93F
WASHINGTON     MOSUNNY   91  72  54 NW3       29.90F
WHITEVILLE     LGT RAIN  77  75  92 CALM      29.91R

$$

AMZ130-135-150-152-154-156-158-170-250-252-270-ANZ085-086-088-633-658-670-192000-
MARINE OBSERVATIONS

STATION/POSITION TIME  TEMP    WIND        PRES    WAVE   SWELL
                       AIR SEA DIR/SP/G            HT/PER HT/PER
                 (UTC) (F)     (DEG/KT/KT) (MB)    (FT/S) (FT/S)
CHESAPEAKE LIGHT NOT AVBL
64 E VA BEACH    1850   79 78  280/  6/  6 1013.6    3/ 6   3/ 6
DUCK             1900   86 75   70/  5/  6 1012.6
2 E DUCK         1900      83                N/A     2/ 8
OREGON INLET     1900   85 85   90/  4/  6 1013.0
13E OREGON INLT  1848      83                N/A     3/ 6   3/ 6
HATTERAS CG      1900   81 83  230/  7/ 12 1013.2
DIAMOND BUOY     1850   84 84  250/ 16/ 21 1013.5    4/ 5   2/ 8
CAPE LOOKOUT     1900   86     210/ 13/ 16 1013.3
BEAUFORT LAB     1900   87 83  210/ 10/ 16 1013.1
30 SE NEW RVR IN 1908   83 84  220/ 14/ 21 1013.4
30 SE NEW RVR IN 1913      84                N/A     4/ 6
27 SE WRIGHTSVLE 1908   85 84  200/ 14/ 19 1013.3
5 SE WRIGHTSVLE  1908   84 83  220/ 14/ 19 1013.5
225 S CAPE HAT   1850   84 85  200/ 12/ 14 1016.5    4/ 9   2/ 9
41 SE CHARLESTON 1910   84 85  200/ 14/ 17 1013.5

$$




USA.gov is the U.S. government's official web portal to all federal, state and local government web resources and services.